Regional Weather Roundup
Issued by NWS Binghamton, NY

Home | Current Version | Previous Version | Text Only | Print | Product List | Glossary On
Versions: 1 2 3 4 5 6 7 8 9 10 11 12 13 14 15 16 17 18 19 20 21 22 23 24 25 26 27 28 29 30 31 32 33 34 35 36 37 38 39 40 41 42 43 44 45 46 47 48 49 50
502
ASUS41 KBGM 302210
RWRBGM

REGIONAL WEATHER ROUNDUP
NATIONAL WEATHER SERVICE BINGHAMTON NY
600 PM EDT SAT JUL 30 2016

Note: "fair" indicates few or no clouds below 12,000 feet with no
significant weather and/or obstructions to visibility.

* = Station(s) that does not report precipitation, such as rain,
snow, etc, also no thunder or fog.

NYZ009-015>018-022>025-036-037-044>046-055>057-062-302300
...Central New York...

CITY           SKY/WX    TMP DP  RH WIND       PRES   REMARKS
Binghamton     LGT RAIN  65  64  97 E8        30.05R
Cortland       LGT RAIN  70  63  78 E6        30.05R
Dansville      CLOUDY    73  62  68 SE6       30.02S
Elmira         CLOUDY    71  63  75 E7        30.02S
Ithaca         CLOUDY    71  63  75 E5        30.05R
Hamilton       MOSUNNY   72  64  78 CALM      30.05R
Hornell        CLOUDY    72  63  73 E3        30.06S
Monticello     CLOUDY    70  68  94 SE9       30.09R
Norwich        MOSUNNY   70  64  83 CALM      30.05S
Oneonta        SUNNY     66  63  88 SE5       30.08R
Penn Yan       CLOUDY    71  63  75 VRB3      30.04S
Rome           CLOUDY    74  62  66 E5        30.03S
Sidney         LGT RAIN  70  70 100 CALM      30.05R
Syracuse       PTSUNNY   76  60  57 SE7       30.01R
$$

PAZ038>040-043-044-047-048-072-302300
...Northeast Pennsylvania...

CITY           SKY/WX    TMP DP  RH WIND       PRES   REMARKS
Hazleton       RAIN      68  66  94 CALM      30.07S
Scranton       RAIN      69  67  93 NE3       30.03S FOG
$$
&&
KEY
WCI = Wind Chill Index
VSB = Visibility
HX  = Heat Index
$$




USA.gov is the U.S. government's official web portal to all federal, state and local government web resources and services.